User: anonymous   Login
Location: Bismarck
(46.7731°N, 100.8200°W)
Time: 14:47:55
(UTC-05:00)
Language:

Landsat 7 - Orbit

View from above orbital plane
View from above orbital plane
View from above satellite
View from above satellite

Ground track
Ground track

The orbit data is extracted from the following two-line orbital elements,

1 25682U 99020A   15243.32989989  .00000334  00000-0  84108-4 0  9990
2 25682 098.2126 312.2449 0001170 080.5910 279.5428 14.57115757871084
Epoch (UTC): 31 August 2015 07:55:03
Eccentricity: 0.0001170
inclination: 98.2126°
perigee height: 701 km
apogee height: 703 km
right ascension of ascending node: 312.2449°
argument of perigee: 80.5910°
revolutions per day: 14.57115757
mean anomaly at epoch: 279.5428°
orbit number at epoch: 87108

The dashed part of the orbit path shows where the satellite is in the earth's shadow,  

DLR